Weather History for Mason City, IA

Change the Weather History Date:

Friday, June 28, 2013

  Actual Average Record
Temperature  
Mean Temperature 73 °F 71 °F  
Max Temperature 81 °F 83 °F 102 °F (1931)
Min Temperature 64 °F 60 °F 40 °F (1911)
Degree Days  
Heating Degree Days 0 0  
Month to date heating degree days 53 44  
Since 1 June heating degree days 53 44  
Since 1 July heating degree days 7837 7679  
Cooling Degree Days 8 7  
Month to date cooling degree days 146 125  
Year to date cooling degree days 183 160  
Since 1 June cooling degree days 146 125  
Growing Degree Days 22 (Base 50)    
Moisture  
Dew Point 57 °F    
Average Humidity 60    
Maximum Humidity 78    
Minimum Humidity 42    
Precipitation  
Precipitation 0.02 in 0.16 in 1.84 in (1924)
Month to date precipitation 6.28 4.81  
Year to date precipitation 27.69 17.29  
Snow  
Snow 0.00 in 0.00 in - ()
Month to date snowfall 0.0 0.0  
Since 1 June snowfall 0.0 0.0  
Since 1 July snowfall 56.3 41.2  
Snow Depth 0.00 in    
Sea Level Pressure  
Sea Level Pressure 29.81 in    
Wind  
Wind Speed 19 mph (NW)    
Max Wind Speed 32 mph    
Max Gust Speed 39 mph    
Visibility 9 miles    
Events Rain    
T = Trace of Precipitation, MM = Missing Value Source: NWS Daily Summary

Daily Weather History Graph

Daily Weather History Graph

Search for Another Location

Airport:

Trip Planner

Search our weather history database for the weather conditions in past years. The results will help you decide how hot, cold, wet, or windy it might be!

Date:

Astronomy

Jun. 28, 2013 Rise Set
Actual Time 5:36 AM CDT 8:57 PM CDT
Civil Twilight 5:00 AM CDT 9:32 PM CDT
Nautical Twilight 4:14 AM CDT 10:18 PM CDT
Astronomical Twilight 3:17 AM CDT 11:15 PM CDT
Moon No Moon Rise 11:54 AM CDT (6/28)
Length of Visible Light 16h 31m
Length of Day
15h 21m
Waning Gibbous, 66% of the Moon is Illuminated
Jun 28
Waning Gibbous
Jun 29
Last Quarter
Jul 8
New
Jul 15
First Quarter
Jul 22
Full

Hourly Weather History & Observations

Time (CDT) Temp. Heat Index Dew Point Humidity Pressure Visibility Wind Dir Wind Speed Gust Speed Precip Events Conditions
12:53 AM 69.1 °F - 55.9 °F 63% 29.85 in 10.0 mi West 9.2 mph - N/A   Clear
1:53 AM 66.9 °F - 57.0 °F 70% 29.84 in 4.0 mi West 11.5 mph - N/A   Haze
2:07 AM 66.2 °F - 57.2 °F 73% 29.88 in 2.5 mi West 11.5 mph - N/A   Haze
2:34 AM 66.2 °F - 57.2 °F 73% 29.88 in 1.8 mi West 10.4 mph - N/A   Haze
2:38 AM 64.4 °F - 57.2 °F 77% 29.88 in 3.0 mi West 10.4 mph - N/A   Haze
2:53 AM 64.9 °F - 57.0 °F 75% 29.84 in 10.0 mi West 9.2 mph - N/A   Clear
3:53 AM 68.0 °F - 55.9 °F 65% 29.84 in 10.0 mi NW 15.0 mph - N/A   Clear
4:53 AM 66.0 °F - 55.9 °F 70% 29.84 in 10.0 mi NW 10.4 mph - N/A   Clear
5:53 AM 64.9 °F - 55.0 °F 70% 29.84 in 10.0 mi WNW 11.5 mph - N/A   Clear
6:53 AM 66.0 °F - 55.9 °F 70% 29.83 in 10.0 mi WNW 9.2 mph - N/A   Clear
7:53 AM 71.1 °F - 55.9 °F 59% 29.82 in 10.0 mi WNW 17.3 mph - N/A   Clear
8:53 AM 73.0 °F - 55.9 °F 55% 29.82 in 10.0 mi NW 19.6 mph 27.6 mph N/A   Clear
9:53 AM 75.0 °F - 55.9 °F 51% 29.82 in 10.0 mi NW 25.3 mph 33.4 mph N/A   Clear
10:53 AM 78.1 °F - 57.9 °F 50% 29.80 in 10.0 mi NW 20.7 mph 33.4 mph N/A   Partly Cloudy
11:53 AM 79.0 °F - 57.0 °F 47% 29.81 in 10.0 mi NW 26.5 mph 36.8 mph N/A   Scattered Clouds
12:53 PM 77.0 °F - 57.0 °F 50% 29.80 in 10.0 mi NW 26.5 mph 34.5 mph N/A   Mostly Cloudy
1:53 PM 80.1 °F 80.2 °F 55.9 °F 43% 29.79 in 10.0 mi NW 26.5 mph 35.7 mph N/A   Scattered Clouds
2:53 PM 78.1 °F - 55.0 °F 45% 29.80 in 10.0 mi NNW 25.3 mph 34.5 mph N/A   Mostly Cloudy
3:53 PM 77.0 °F - 55.9 °F 48% 29.79 in 10.0 mi NNW 24.2 mph 29.9 mph N/A   Overcast
4:53 PM 77.0 °F - 55.9 °F 48% 29.79 in 10.0 mi NNW 26.5 mph 35.7 mph N/A   Overcast
5:53 PM 75.9 °F - 57.9 °F 54% 29.78 in 10.0 mi NW 20.7 mph 36.8 mph N/A   Partly Cloudy
6:53 PM 77.0 °F - 57.9 °F 52% 29.77 in 10.0 mi NW 21.9 mph 31.1 mph N/A   Partly Cloudy
7:53 PM 75.0 °F - 57.0 °F 53% 29.77 in 10.0 mi NW 23.0 mph 29.9 mph N/A   Partly Cloudy
8:53 PM 73.0 °F - 55.9 °F 55% 29.77 in 10.0 mi NNW 16.1 mph - N/A   Clear
9:53 PM 71.1 °F - 59.0 °F 66% 29.80 in 8.0 mi NNW 29.9 mph 38.0 mph 0.00 in Rain Light Rain
10:53 PM 64.9 °F - 61.0 °F 87% 29.78 in 10.0 mi NNW 15.0 mph 21.9 mph 0.02 in Rain Light Rain
11:53 PM 64.9 °F - 60.1 °F 84% 29.77 in 10.0 mi NNW 10.4 mph - 0.00 in   Clear